CW7731 Weather Reports


time (UTC)temp
C
wind
direction
speed
KPH
gust
KPH
rain 1hr
cm
rain 24hr
cm
rain mn
cm
humidity
%
barometer
mb
20260506124109 15 93 0.0 0.0 0.15 0.53 0.43 91 1008.5
20260506123145 15 93 0.0 0.0 0.13 0.51 0.43 91 1008.8
20260506122122 15 93 0.0 0.0 0.13 0.51 0.43 91 1008.7
20260506121133 15 93 0.0 1.6 0.13 0.51 0.43 91 1008.6
20260506120114 15 37 0.0 1.6 0.15 0.48 0.41 91 1008.6
20260506114136 15 18 0.0 0.0 0.10 0.38 0.30 90 1008.6
20260506113109 15 12 0.0 0.0 0.10 0.38 0.30 90 1008.7
20260506112142 15 12 0.0 0.0 0.10 0.38 0.30 90 1008.8
20260506111135 15 12 0.0 0.0 0.10 0.38 0.30 90 1008.8
20260506110140 15 13 0.0 0.0 0.05 0.33 0.25 90 1009.0
20260506105133 15 12 0.0 0.0 0.05 0.33 0.23 89 1009.1
20260506104110 15 12 0.0 0.0 0.00 0.28 0.20 89 1009.2
20260506103122 15 17 0.0 0.0 0.00 0.28 0.20 89 1009.1
20260506102136 15 17 0.0 0.0 0.00 0.28 0.20 89 1009.3
20260506101130 15 17 0.0 1.6 0.00 0.28 0.20 89 1009.3
20260506100119 15 10 0.0 1.6 0.00 0.28 0.20 89 1009.2
20260506095117 15 98 0.0 0.0 0.00 0.00 0.20 89 1009.3
20260506094141 15 98 0.0 0.0 0.00 0.00 0.20 89 1009.3
20260506092133 15 88 0.0 1.6 0.00 0.00 0.20 88 1009.3
20260506091113 15 76 0.0 0.0 0.00 0.00 0.20 88 1009.3
20260506085141 15 325 0.0 1.6 0.00 0.00 0.20 89 1009.2
20260506084127 15 323 0.0 1.6 0.00 0.00 0.20 90 1009.0
20260506083118 15 323 0.0 0.0 0.00 0.00 0.20 91 1009.0
20260506082112 14 323 0.0 0.0 0.00 0.00 0.20 92 1009.1
20260506080138 13 323 0.0 0.0 0.00 0.00 0.20 92 1008.8
20260506073124 13 309 0.0 0.0 0.00 0.00 0.20 93 1009.0
20260506071104 13 302 0.0 0.0 0.03 0.00 0.20 93 1009.0
20260506070117 13 302 0.0 0.0 0.05 0.00 0.20 93 1009.2
20260506062109 12 302 0.0 0.0 0.20 0.00 0.20 92 1009.5
20260506061103 12 302 0.0 0.0 0.18 0.00 0.18 92 1009.5
20260506060109 12 301 0.0 0.0 0.15 0.00 0.15 92 1009.5
20260506051110 12 323 0.0 0.0 0.00 0.00 0.00 92 1009.6
20260506050107 12 323 0.0 0.0 0.00 0.00 0.00 92 1009.3
20260506045135 12 343 0.0 0.0 0.00 0.00 0.00 92 1009.2
20260506044105 12 113 0.0 0.0 0.00 0.00 0.00 92 1009.2
20260506043125 12 113 0.0 0.0 0.00 0.00 0.00 92 1009.2
20260506042132 12 326 0.0 0.0 0.00 0.00 0.00 92 1009.2
20260506041129 12 325 0.0 0.0 0.00 0.00 0.00 92 1009.1
20260506040147 12 327 0.0 0.0 0.00 0.00 0.00 92 1008.8
20260506034109 12 327 0.0 0.0 0.00 0.00 0.00 92 1009.0
20260506033111 12 327 0.0 0.0 0.00 0.00 0.00 92 1009.1
20260506032121 12 327 0.0 0.0 0.00 0.00 0.00 92 1009.3
20260506031116 12 327 0.0 0.0 0.00 0.00 0.00 92 1009.4
20260506030125 12 327 0.0 0.0 0.00 0.00 0.00 92 1009.7
20260506025143 12 327 0.0 0.0 0.00 0.00 0.00 92 1009.9
20260506024129 12 327 0.0 0.0 0.00 0.00 0.00 92 1009.8
20260506023106 12 323 0.0 0.0 0.00 0.00 0.00 92 1009.9
20260506022128 12 323 0.0 0.0 0.00 0.00 0.00 92 1009.8
20260506021138 12 323 0.0 0.0 0.00 0.00 0.00 92 1009.8
20260506020110 12 323 0.0 0.0 0.00 0.00 0.00 92 1009.9
20260506015119 12 323 0.0 0.0 0.00 0.00 0.00 92 1009.9
20260506014142 12 323 0.0 0.0 0.00 0.00 0.00 92 1010.1
20260506012123 12 323 0.0 0.0 0.00 0.00 0.00 92 1010.1
20260506011143 12 323 0.0 0.0 0.00 0.00 0.00 91 1010.4
20260506005135 12 324 0.0 0.0 0.00 0.00 0.00 91 1010.3
20260506004140 12 324 0.0 0.0 0.00 0.00 0.00 91 1010.5
20260506003104 12 324 0.0 0.0 0.00 0.00 0.00 91 1010.3
20260506002123 12 324 0.0 0.0 0.00 0.00 0.00 91 1010.4
20260506001118 12 331 0.0 0.0 0.00 0.00 0.00 91 1010.6
20260506000116 12 331 0.0 0.0 0.00 0.00 0.00 91 1010.7
20260505234121 12 340 0.0 0.0 0.00 0.00 0.00 91 1010.8
20260505231143 13 0 0.0 0.0 0.00 0.00 0.00 91 1010.9
20260505225101 13 0 0.0 0.0 0.00 0.00 0.00 91 1011.0
20260505224131 13 0 0.0 0.0 0.00 0.00 0.00 91 1011.2
20260505222132 13 0 0.0 0.0 0.00 0.00 0.00 91 1011.2
20260505221126 13 0 0.0 0.0 0.00 0.00 0.00 91 1011.3
20260505220140 13 0 0.0 0.0 0.00 0.00 0.00 91 1011.2
20260505215105 13 0 0.0 0.0 0.00 0.00 0.08 91 1011.2
20260505214103 13 0 0.0 0.0 0.00 0.00 0.08 91 1011.4
20260505213117 13 0 0.0 0.0 0.00 0.00 0.08 91 1011.6
20260505212147 13 0 0.0 0.0 0.00 0.00 0.08 91 1011.7
20260505211106 13 0 0.0 0.0 0.00 0.00 0.08 91 1011.8
20260505210117 13 0 0.0 0.0 0.00 0.00 0.08 91 1011.8
20260505205144 13 0 0.0 0.0 0.00 0.00 0.08 91 1011.9
20260505204111 13 0 0.0 0.0 0.00 0.00 0.08 91 1011.9
20260505202131 13 0 0.0 0.0 0.00 0.00 0.08 91 1011.7
20260505201123 13 0 0.0 0.0 0.00 0.00 0.08 91 1011.8
20260505195133 13 0 0.0 0.0 0.00 0.00 0.08 91 1011.9
20260505194114 13 0 0.0 0.0 0.00 0.00 0.08 91 1011.8
20260505192132 13 0 0.0 0.0 0.00 0.00 0.08 91 1011.9
20260505190143 13 0 0.0 0.0 0.00 0.00 0.08 91 1011.8
20260505185105 13 0 0.0 0.0 0.00 0.00 0.08 91 1011.8
20260505184132 13 0 0.0 0.0 0.00 0.00 0.08 91 1011.8
20260505183126 13 0 0.0 0.0 0.00 0.00 0.08 90 1011.8
20260505181106 13 0 0.0 0.0 0.00 0.00 0.08 90 1011.5
20260505180119 13 0 0.0 0.0 0.00 0.00 0.08 90 1011.5
20260505175122 13 0 0.0 0.0 0.00 0.00 0.08 92 1011.4
20260505174106 13 0 0.0 0.0 0.00 0.00 0.08 90 1011.4
20260505173131 13 0 0.0 0.0 0.00 0.00 0.08 90 1011.4
20260505172141 13 0 0.0 1.6 0.00 0.00 0.08 89 1011.4
20260505171128 13 349 0.0 0.0 0.00 0.00 0.08 89 1011.4
20260505170125 13 349 0.0 0.0 0.00 0.00 0.08 89 1011.4
20260505165120 13 349 0.0 0.0 0.00 0.00 0.08 89 1011.5
20260505164134 13 349 0.0 0.0 0.00 0.00 0.08 89 1011.5
20260505163127 13 349 0.0 3.2 0.00 0.00 0.08 89 1011.4
20260505162135 13 338 0.0 1.6 0.00 0.00 0.08 89 1011.5
20260505153142 13 318 0.0 0.0 0.03 0.00 0.08 89 1011.7
20260505152133 13 318 0.0 0.0 0.05 0.00 0.08 88 1011.8
20260505151131 13 318 0.0 0.0 0.08 0.00 0.08 88 1011.8
20260505150115 13 355 0.0 0.0 0.08 0.00 0.08 88 1011.7
20260505140111 14 20 1.6 9.7 0.00 0.00 0.00 86 1012.0
20260505130108 15 336 0.0 0.0 0.00 0.00 0.00 84 1012.3